Miscellaneous Local Product
Issued by NWS Hastings, NE

Home | Current Version | Previous Version | Text Only | Print | Product List | Glossary Off
Versions: 1 2 3 4 5 6 7 8 9 10 11 12 13 14 15 16 17 18 19 20 21 22 23 24 25 26 27 28 29 30 31 32 33 34 35 36 37 38 39 40 41 42 43 44 45 46 47 48 49 50

000
AXUS43 KGID 190102
MISGRI

GID CWA HOURLY WEATHER ROUNDUP
NATIONAL WEATHER SERVICE HASTINGS NE
800 PM CDT FRI APR 18 2014

NOTE: "FAIR" INDICATES FEW OR NO CLOUDS BELOW 12,000 FEET WITH NO
SIGNIFICANT WEATHER AND/OR OBSTRUCTIONS TO VISIBILITY.

...SOUTH CENTRAL NEBRASKA...

CITY           SKY/WX    TMP DP  RH WIND       PRES   REMARKS
GRAND ISLAND   CLOUDY    66  42  41 S18       29.98F
HASTINGS       MOCLDY    66  40  38 S10       29.99R
KEARNEY        MOCLDY    64  41  42 S21       29.97S
ORD            MOCLDY    66  41  40 S15G26    29.91F
YORK           CLOUDY    64  41  42 S15       30.01F
AURORA         CLOUDY    67  42  39 S18G26    29.99F
LEXINGTON      PTCLDY    67  43  41 S20G25    29.92S
HOLDREGE       PTCLDY    66  41  41 S18G24    29.96S
HEBRON         CLOUDY    67  40  37 S14G22    30.04S

...NEBRASKA PANHANDLE...

CITY           SKY/WX    TMP DP  RH WIND       PRES   REMARKS
CHADRON        CLOUDY    75  36  24 S16       29.64F
ALLIANCE       MOCLDY    71  31  22 S18G25    29.75F
SCOTTSBLUFF    MOCLDY    75  30  19 S15       29.74F
SIDNEY         MOCLDY    70  31  23 S13       29.84S

...WESTERN AND NORTH CENTRAL NEBRASKA...

CITY           SKY/WX    TMP DP  RH WIND       PRES   REMARKS
VALENTINE      CLOUDY    69  40  34 S28G37    29.74F
AINSWORTH      MOCLDY    67  41  39 S22G28    29.81S
ONEILL         CLOUDY    67  38  34 S25G31    29.88S
BROKEN BOW     PTCLDY    65  43  44 S16       29.91S
IMPERIAL       CLEAR     70  41  34 S20       29.86R
NORTH PLATTE   PTCLDY    67  43  41 SE9G25    29.88R
MCCOOK         PTCLDY    67  44  43 S17G25    29.92R

...EASTERN NEBRASKA...

CITY           SKY/WX    TMP DP  RH WIND       PRES   REMARKS
NORFOLK        CLOUDY    64  40  41 S21       29.97F
SO SIOUX CITY  MOCLDY    64  38  38 SE15      30.02F
TEKAMAH        MOCLDY    64  38  38 S15       30.05S
COLUMBUS       CLOUDY    63  39  42 S13       30.02S
ALBION         CLOUDY    65  40  40 S23G29    29.96S
OMAHA EPPLEY   MOCLDY    65  38  36 S14       30.07F
OFFUTT AFB     PTCLDY    63  40  42 SE10      30.08S
MILLARD        PTCLDY    65  39  38 SE12      30.07S
LINCOLN        MOCLDY    65  39  38 SE15      30.06S
NEBRASKA CITY  CLEAR     63  39  41 S14       30.10F
BEATRICE       MOCLDY    65  38  37 SE13      30.07S
FALLS CITY     NOT AVBL

...NORTHERN KANSAS...

CITY           SKY/WX    TMP DP  RH WIND       PRES   REMARKS
GOODLAND       MOCLDY    68  42  38 S23G31    29.91R
HILL CITY      PTCLDY    69  41  36 S15G31    29.97R
PHILLIPSBURG   CLEAR     66  41  39 SE16G24   29.98S
SMITH CENTER   CLEAR     64  43  45 SE20G26   30.01S
BELOIT         CLEAR     66  41  39 S13G21    30.02S
HAYS           CLEAR     66  43  42 S21G26    30.01R
RUSSELL        CLEAR     65  42  43 S20       30.01R
CONCORDIA      MOCLDY    66  42  41 S17       30.04F
SALINA         PTCLDY    67  41  38 S16       30.06F
TOPEKA         CLEAR     62  41  46 SE8       30.13S



USA.gov is the U.S. government's official web portal to all federal, state and local government web resources and services.